SCP
0 0 0 0 0 0 0 0 0 0 0 0 0 0 0 0 0 0 0 0 0 0 0 0 0 0 0 0 0 0 0 0 0 0 0 0 0 0
0 0 0 0 0 0 0 0 0 0 0 0 0 0 0 0 0 0 0 0 0 0 0 0 0 0 0 0 0 0 0 0 0 0 0 0 0 0
0 0 0 0 0 0 0 0 0 0 0 0 0 0 0 0 0 0 0 0 0 0 0 0 0 0 0 0 0 0 0 0 0 0 0 0 0 0
0 0 0 0 0 0 0 0 0 0 0 0 0 0 0 0 0 0 0 0 0 0 0 0 0 0 0 0 0 0 0 0 0 0 0 0 0 0
0 0 0 0 0 0 0 0 0 0 0 0 0 0 0 0 0 0 0 0 0 0 0 0 0 0 0 0 0 0 0 0 0 0 0 0 0 0
0 0 0 0 0 0 0 0 0 0 0 0 0 0 0 0 0 0 0 0 0 0 0 0 0 0 0 0 0 0 0 0 0 0 -0 -0 -0 -0
0 0 0 0 -0 0 0 0 0 0 0 0 0 0 0 0 0 0 0 0 0 0 0 0 0 0 0 0 0 0 0 0 -0 -0 -0 -0 -0 -0
0 0 0 -0 -0 -0 0 0 0 0 0 0 0 0 0 0 0 0 0 0 0 0 0 0 0 0 0 0 0 0 0 -0 -0 -0 -0 -0 -0 -0
-0 0 0 0 -0 0 0 0 0 0 0 0 0 0 0 0 0 0 0 0 0 0 0 0 0 0 0 0 0 0 0 -0 -0 -0 -0 -0 -0 -0
0 0 0 0 -0 0 0 0 0 0 0 0 0 0 0 0 0 0 0 0 0 0 0 0 0 0 0 0 0 0 0 0 -0 -0 -0 -0 -0 -0
0 0 0 0 -0 -0 0 0 0 0 0 0 0 0 0 0 0 0 0 0 0 0 0 0 0 0 0 0 0 0 0 -0 -0 -0 -0 -0 -0 -0
0 0 0 0 0 -0 0 0 0 0 0 0 0 0 0 0 0 0 0 0 0 0 0 0 0 0 0 0 0 0 0 -0 -0 -0 -0 -0 -0 0
0 0 0 0 0 0 0 0 0 0 0 0 0 0 0 0 0 0 0 0 0 0 0 0 0 0 0 0 0 0 0 0 0 -0 -0 -0 -0 -0
-0 0 0 -0 0 0 0 0 0 0 0 0 0 0 0 0 0 0 0 0 0 0 0 0 0 0 0 0 0 0 0 0 0 0 -0 -0 -0 -0
-0 0 -0 -0 0 0 0 0 0 0 0 0 0 0 0 0 0 0 0 0 0 0 0 0 0 0 0 0 0 0 0 0 0 -0 -0 -0 -0 0
0 0 0 0 0 0 0 0 0 0 0 0 0 0 0 0 0 0 0 0 0 0 0 0 0 0 0 0 0 0 0 0 0 0 0 0 -0 -0
0 0 0 0 0 0 0 0 0 0 0 0 0 0 0 0 0 0 0 0 0 0 0 0 0 0 0 0 0 0 0 0 0 0 -0 -0 -0 -0
0 0 0 0 0 0 0 0 0 0 0 0 0 0 0 0 0 0 0 0 0 0 0 0 0 0 0 0 0 0 0 0 0 0 0 -0 -0 -0
0 0 0 0 0 0 0 0 0 0 0 0 0 0 0 0 0 0 0 0 0 0 0 0 0 0 0 0 0 0 0 0 0 0 0 -0 -0 -0
0 0 0 0 0 0 0 0 0 0 0 0 0 0 0 0 0 0 0 0 0 0 0 0 0 0 0 0 0 0 0 0 0 0 0 0 0 -0
0 0 0 0 0 0 0 0 0 0 0 0 0 0 0 0 0 0 0 0 0 0 0 0 0 0 0 0 0 0 0 0 0 0 0 -0 0 -0
0 0 0 0 0 0 0 0 0 0 0 0 0 0 0 0 0 0 0 0 0 0 0 0 0 0 0 0 0 0 0 0 0 0 0 0 0 0
0 0 0 0 0 0 0 0 0 0 0 0 0 0 0 0 0 0 0 0 0 0 0 0 0 0 0 0 0 0 0 0 0 0 0 -0 -0 -0
Wind_Speed_500mb
36 45 50 60 49 25 14 10 16 11 11 9 8 13 15 14 12 9 12 15 20 24 26 31 25 24 25 20 17 16 13 15 21 24 27 30 32 34
38 40 51 57 60 39 21 14 14 15 14 9 4 8 15 20 20 18 16 14 11 7 15 25 26 26 19 14 12 9 9 14 19 21 24 26 30 37
42 39 42 50 60 53 30 14 9 11 13 14 7 8 12 16 20 19 20 17 14 11 11 11 15 10 10 8 3 6 10 15 17 21 20 25 30 38
46 45 43 47 57 58 43 27 13 11 15 21 21 20 16 17 17 16 14 13 10 8 7 4 7 8 8 5 1 6 10 12 15 16 20 25 35 40
39 46 47 44 50 60 50 38 20 9 9 13 12 12 21 22 23 22 19 17 14 11 5 5 11 10 8 3 2 5 8 10 13 13 21 30 36 36
32 38 44 43 44 55 53 46 32 15 8 7 10 9 12 16 19 20 18 17 15 13 11 9 15 13 9 5 1 4 9 11 11 16 21 31 35 39
29 34 39 39 30 43 49 46 40 25 12 4 1 5 6 11 15 16 17 14 15 15 14 16 19 18 12 7 4 6 9 10 15 17 25 32 32 38
29 31 37 37 33 35 46 46 37 33 24 12 9 10 10 10 12 15 14 15 13 13 15 19 21 18 13 9 7 6 13 12 15 22 27 32 34 37
27 30 31 37 35 37 34 44 41 34 30 21 16 13 12 10 9 11 12 13 12 16 15 22 23 18 15 10 10 11 15 15 20 23 25 29 35 38
26 27 30 33 34 37 32 40 43 40 36 29 23 18 16 12 7 9 10 13 18 20 13 21 25 21 17 13 11 14 20 21 23 20 23 28 35 35
20 21 24 26 29 31 33 31 37 39 36 31 24 17 14 11 8 7 13 11 19 22 16 27 30 26 20 16 16 24 26 26 22 21 25 28 27 24
17 15 18 19 25 28 29 31 34 37 37 33 28 27 25 19 15 9 4 6 11 16 21 29 36 29 15 23 27 26 30 26 23 21 23 24 24 22
20 14 17 14 21 25 29 28 26 29 35 32 31 31 29 25 21 15 10 7 11 9 27 35 33 16 19 32 30 32 29 25 21 17 21 28 25 27
19 14 13 14 18 21 24 23 21 26 29 30 32 33 30 30 25 21 16 12 12 19 28 30 22 24 36 41 37 34 28 25 21 24 21 25 29 37
15 8 9 12 14 18 15 18 20 26 29 31 35 36 31 24 24 24 25 23 18 22 26 22 29 34 32 39 42 36 32 27 21 21 22 23 30 33
10 5 6 9 12 16 13 18 23 29 32 34 34 34 32 24 25 23 24 25 25 33 33 33 29 27 37 37 35 33 23 19 18 24 28 26 30 37
19 10 7 8 8 12 16 23 21 24 34 34 31 33 35 30 27 21 25 25 30 33 34 33 31 36 35 36 29 29 27 21 18 22 23 23 33 38
18 10 11 13 12 16 19 20 22 28 30 34 34 33 34 34 29 21 19 21 27 31 32 33 31 35 36 35 31 29 21 18 17 19 20 25 38 40
18 12 12 13 13 14 18 23 26 32 30 31 34 33 32 32 31 26 19 16 21 22 26 26 26 30 38 40 31 27 20 15 14 18 23 30 40 40
27 20 12 11 12 12 12 17 17 22 30 33 29 31 32 32 32 30 22 19 18 16 17 16 16 23 27 34 36 31 22 19 22 22 28 33 38 36
35 26 19 11 9 8 10 10 15 14 21 28 30 27 30 32 32 30 25 17 16 18 15 18 23 25 25 28 35 34 24 22 22 24 27 30 34 33
37 33 25 17 8 5 5 6 10 8 10 17 26 27 26 29 31 29 24 20 17 18 18 19 18 24 29 28 32 32 25 18 12 12 12 14 13 24
27 31 31 25 17 8 4 4 4 2 7 11 15 22 23 25 28 28 23 19 16 17 16 18 15 20 26 28 29 28 23 18 18 25 39 34 38 39
Wind_Direction_500mb
16 18 9 9 10 353 316 320 310 310 319 321 245 254 243 225 214 223 237 243 247 248 238 258 256 266 261 238 249 272 293 317 329 340 341 343 347 351
15 19 9 7 12 7 350 320 270 286 264 312 311 245 250 239 230 221 219 219 224 236 230 256 266 260 229 231 257 281 313 337 338 348 344 353 352 351
19 20 11 5 6 13 4 333 310 268 267 272 297 273 243 236 232 230 224 226 229 234 242 250 249 234 227 235 266 320 348 349 358 347 357 1 357 358
18 19 13 8 3 12 14 2 319 302 279 278 275 261 240 234 233 224 218 220 227 251 259 249 234 201 216 219 311 351 355 356 356 4 14 11 13 7
17 17 21 10 5 9 15 16 11 335 284 264 259 240 230 231 233 230 226 231 244 253 242 196 169 179 188 183 10 343 357 10 18 30 23 30 20 20
13 18 21 16 12 12 13 17 14 1 324 250 233 228 222 219 218 220 219 224 229 228 219 182 158 173 172 171 90 0 7 20 48 48 38 38 29 22
7 17 20 23 14 16 16 14 20 23 26 37 210 196 187 180 186 184 182 187 186 195 184 173 165 173 168 153 92 21 38 58 65 57 51 37 28 21
1 12 14 23 20 19 13 18 20 29 47 64 93 115 123 144 142 157 161 159 140 161 163 161 162 165 156 146 99 40 61 75 80 62 44 33 30 22
356 3 11 17 28 32 7 18 25 35 42 48 69 82 93 98 135 144 156 176 179 153 154 148 161 157 150 134 99 62 90 94 84 63 44 30 28 23
353 358 2 12 29 30 17 14 24 28 32 37 46 59 70 65 85 137 137 161 164 163 152 150 147 146 137 116 89 88 102 97 85 63 41 32 25 19
350 355 355 7 25 32 22 24 25 31 29 31 36 51 62 78 82 109 104 113 147 171 182 158 143 131 120 109 84 88 104 100 82 58 44 40 24 22
345 355 358 5 27 30 19 25 29 30 30 33 45 59 61 76 92 106 108 161 152 152 173 159 146 126 98 90 94 100 106 95 77 55 51 40 38 46
339 354 8 18 34 33 31 29 33 34 37 36 45 57 67 67 76 88 76 120 204 192 168 164 159 147 129 110 108 110 109 95 69 51 46 43 52 64
333 0 18 30 33 33 47 37 48 47 41 44 46 48 55 59 58 69 66 81 127 153 160 169 171 152 136 124 118 119 112 92 67 42 45 43 54 59
331 8 41 43 38 36 44 47 51 53 53 50 50 45 45 51 51 57 76 86 98 119 135 144 145 140 134 129 127 125 116 94 62 34 58 63 69 69
52 59 73 63 51 40 49 59 55 57 52 52 49 46 46 59 64 52 81 95 103 108 115 123 134 137 130 131 130 125 113 100 69 38 46 55 71 70
48 65 88 95 82 67 53 64 64 64 60 55 53 50 49 56 62 66 80 100 107 104 107 107 114 141 133 131 129 122 108 99 70 48 44 64 75 73
30 74 74 73 68 66 66 57 54 59 62 57 54 52 50 54 59 77 89 101 104 104 107 111 118 133 138 128 126 118 115 96 63 42 45 82 83 73
37 59 63 79 73 59 58 64 55 52 56 63 60 55 52 52 61 66 93 113 114 110 108 111 127 141 142 128 126 127 124 96 68 61 72 85 83 73
44 50 49 47 70 75 64 67 63 50 52 59 61 58 56 52 56 59 74 102 131 138 119 114 135 161 154 136 135 131 116 76 65 66 87 87 86 76
37 41 42 41 44 55 62 64 61 46 51 53 56 62 58 57 52 57 61 85 120 136 130 127 130 138 150 146 141 126 110 86 66 55 76 90 84 84
35 35 37 32 31 23 29 54 73 58 50 52 53 56 62 57 59 56 60 71 96 120 124 125 130 141 153 152 144 133 125 114 66 46 94 85 84 85
29 35 37 32 25 12 328 331 40 64 51 54 52 51 55 61 57 58 56 59 83 101 112 117 124 139 148 147 152 143 133 117 99 102 97 101 99 85
Wind_Speed_850mb
36 45 50 60 49 25 14 10 16 11 11 9 8 13 15 14 12 9 12 15 20 24 26 31 25 24 25 20 17 16 13 15 21 24 27 30 32 34
38 40 51 57 60 39 21 14 14 15 14 9 4 8 15 20 20 18 16 14 11 7 15 25 26 26 19 14 12 9 9 14 19 21 24 26 30 37
42 39 42 50 60 53 30 14 9 11 13 14 7 8 12 16 20 19 20 17 14 11 11 11 15 10 10 8 3 6 10 15 17 21 20 25 30 38
46 45 43 47 57 58 43 27 13 11 15 21 21 20 16 17 17 16 14 13 10 8 7 4 7 8 8 5 1 6 10 12 15 16 20 25 35 40
39 46 47 44 50 60 50 38 20 9 9 13 12 12 21 22 23 22 19 17 14 11 5 5 11 10 8 3 2 5 8 10 13 13 21 30 36 36
32 38 44 43 44 55 53 46 32 15 8 7 10 9 12 16 19 20 18 17 15 13 11 9 15 13 9 5 1 4 9 11 11 16 21 31 35 39
29 34 39 39 30 43 49 46 40 25 12 4 1 5 6 11 15 16 17 14 15 15 14 16 19 18 12 7 4 6 9 10 15 17 25 32 32 38
29 31 37 37 33 35 46 46 37 33 24 12 9 10 10 10 12 15 14 15 13 13 15 19 21 18 13 9 7 6 13 12 15 22 27 32 34 37
27 30 31 37 35 37 34 44 41 34 30 21 16 13 12 10 9 11 12 13 12 16 15 22 23 18 15 10 10 11 15 15 20 23 25 29 35 38
26 27 30 33 34 37 32 40 43 40 36 29 23 18 16 12 7 9 10 13 18 20 13 21 25 21 17 13 11 14 20 21 23 20 23 28 35 35
20 21 24 26 29 31 33 31 37 39 36 31 24 17 14 11 8 7 13 11 19 22 16 27 30 26 20 16 16 24 26 26 22 21 25 28 27 24
17 15 18 19 25 28 29 31 34 37 37 33 28 27 25 19 15 9 4 6 11 16 21 29 36 29 15 23 27 26 30 26 23 21 23 24 24 22
20 14 17 14 21 25 29 28 26 29 35 32 31 31 29 25 21 15 10 7 11 9 27 35 33 16 19 32 30 32 29 25 21 17 21 28 25 27
19 14 13 14 18 21 24 23 21 26 29 30 32 33 30 30 25 21 16 12 12 19 28 30 22 24 36 41 37 34 28 25 21 24 21 25 29 37
15 8 9 12 14 18 15 18 20 26 29 31 35 36 31 24 24 24 25 23 18 22 26 22 29 34 32 39 42 36 32 27 21 21 22 23 30 33
10 5 6 9 12 16 13 18 23 29 32 34 34 34 32 24 25 23 24 25 25 33 33 33 29 27 37 37 35 33 23 19 18 24 28 26 30 37
19 10 7 8 8 12 16 23 21 24 34 34 31 33 35 30 27 21 25 25 30 33 34 33 31 36 35 36 29 29 27 21 18 22 23 23 33 38
18 10 11 13 12 16 19 20 22 28 30 34 34 33 34 34 29 21 19 21 27 31 32 33 31 35 36 35 31 29 21 18 17 19 20 25 38 40
18 12 12 13 13 14 18 23 26 32 30 31 34 33 32 32 31 26 19 16 21 22 26 26 26 30 38 40 31 27 20 15 14 18 23 30 40 40
27 20 12 11 12 12 12 17 17 22 30 33 29 31 32 32 32 30 22 19 18 16 17 16 16 23 27 34 36 31 22 19 22 22 28 33 38 36
35 26 19 11 9 8 10 10 15 14 21 28 30 27 30 32 32 30 25 17 16 18 15 18 23 25 25 28 35 34 24 22 22 24 27 30 34 33
37 33 25 17 8 5 5 6 10 8 10 17 26 27 26 29 31 29 24 20 17 18 18 19 18 24 29 28 32 32 25 18 12 12 12 14 13 24
27 31 31 25 17 8 4 4 4 2 7 11 15 22 23 25 28 28 23 19 16 17 16 18 15 20 26 28 29 28 23 18 18 25 39 34 38 39
Wind_Direction_850mb
16 18 9 9 10 353 316 320 310 310 319 321 245 254 243 225 214 223 237 243 247 248 238 258 256 266 261 238 249 272 293 317 329 340 341 343 347 351
15 19 9 7 12 7 350 320 270 286 264 312 311 245 250 239 230 221 219 219 224 236 230 256 266 260 229 231 257 281 313 337 338 348 344 353 352 351
19 20 11 5 6 13 4 333 310 268 267 272 297 273 243 236 232 230 224 226 229 234 242 250 249 234 227 235 266 320 348 349 358 347 357 1 357 358
18 19 13 8 3 12 14 2 319 302 279 278 275 261 240 234 233 224 218 220 227 251 259 249 234 201 216 219 311 351 355 356 356 4 14 11 13 7
17 17 21 10 5 9 15 16 11 335 284 264 259 240 230 231 233 230 226 231 244 253 242 196 169 179 188 183 10 343 357 10 18 30 23 30 20 20
13 18 21 16 12 12 13 17 14 1 324 250 233 228 222 219 218 220 219 224 229 228 219 182 158 173 172 171 90 0 7 20 48 48 38 38 29 22
7 17 20 23 14 16 16 14 20 23 26 37 210 196 187 180 186 184 182 187 186 195 184 173 165 173 168 153 92 21 38 58 65 57 51 37 28 21
1 12 14 23 20 19 13 18 20 29 47 64 93 115 123 144 142 157 161 159 140 161 163 161 162 165 156 146 99 40 61 75 80 62 44 33 30 22
356 3 11 17 28 32 7 18 25 35 42 48 69 82 93 98 135 144 156 176 179 153 154 148 161 157 150 134 99 62 90 94 84 63 44 30 28 23
353 358 2 12 29 30 17 14 24 28 32 37 46 59 70 65 85 137 137 161 164 163 152 150 147 146 137 116 89 88 102 97 85 63 41 32 25 19
350 355 355 7 25 32 22 24 25 31 29 31 36 51 62 78 82 109 104 113 147 171 182 158 143 131 120 109 84 88 104 100 82 58 44 40 24 22
345 355 358 5 27 30 19 25 29 30 30 33 45 59 61 76 92 106 108 161 152 152 173 159 146 126 98 90 94 100 106 95 77 55 51 40 38 46
339 354 8 18 34 33 31 29 33 34 37 36 45 57 67 67 76 88 76 120 204 192 168 164 159 147 129 110 108 110 109 95 69 51 46 43 52 64
333 0 18 30 33 33 47 37 48 47 41 44 46 48 55 59 58 69 66 81 127 153 160 169 171 152 136 124 118 119 112 92 67 42 45 43 54 59
331 8 41 43 38 36 44 47 51 53 53 50 50 45 45 51 51 57 76 86 98 119 135 144 145 140 134 129 127 125 116 94 62 34 58 63 69 69
52 59 73 63 51 40 49 59 55 57 52 52 49 46 46 59 64 52 81 95 103 108 115 123 134 137 130 131 130 125 113 100 69 38 46 55 71 70
48 65 88 95 82 67 53 64 64 64 60 55 53 50 49 56 62 66 80 100 107 104 107 107 114 141 133 131 129 122 108 99 70 48 44 64 75 73
30 74 74 73 68 66 66 57 54 59 62 57 54 52 50 54 59 77 89 101 104 104 107 111 118 133 138 128 126 118 115 96 63 42 45 82 83 73
37 59 63 79 73 59 58 64 55 52 56 63 60 55 52 52 61 66 93 113 114 110 108 111 127 141 142 128 126 127 124 96 68 61 72 85 83 73
44 50 49 47 70 75 64 67 63 50 52 59 61 58 56 52 56 59 74 102 131 138 119 114 135 161 154 136 135 131 116 76 65 66 87 87 86 76
37 41 42 41 44 55 62 64 61 46 51 53 56 62 58 57 52 57 61 85 120 136 130 127 130 138 150 146 141 126 110 86 66 55 76 90 84 84
35 35 37 32 31 23 29 54 73 58 50 52 53 56 62 57 59 56 60 71 96 120 124 125 130 141 153 152 144 133 125 114 66 46 94 85 84 85
29 35 37 32 25 12 328 331 40 64 51 54 52 51 55 61 57 58 56 59 83 101 112 117 124 139 148 147 152 143 133 117 99 102 97 101 99 85